When you browse on this site, cookies collect data to enhance your experience and personalize the content and advertising you see.
Visit our Privacy Policy to learn more. By continuing to use the site, you agree to this use of cookies and data.
  • In Slovakia
  • List of Countries
  • For 7 days
  • Water Temperature
  • Weather Map
  • Weather Widgets
  • user-avatar
    Login

    Hourly Weather Luanda

    Today, 19 November, Tuesday

    Time Temperature Precipitation Wind Pressure Humidity
    00:00 +27°C° 0 mm 3 mps 753 mmHg 83%
    01:00 +27°C° 0 mm 3 mps 752 mmHg 87%
    02:00 +27°C° 0 mm 3 mps 752 mmHg 86%
    03:00 +27°C° 0 mm 2 mps 752 mmHg 86%
    04:00 +27°C° 0 mm 2 mps 752 mmHg 85%
    05:00 +27°C° 0 mm 2 mps 752 mmHg 83%
    06:00 +27°C° 0 mm 2 mps 753 mmHg 82%
    07:00 +28°C° 0 mm 2 mps 753 mmHg 81%
    08:00 +29°C° 0 mm 2 mps 753 mmHg 75%
    09:00 +30°C° 0 mm 1 mps 753 mmHg 69%
    10:00 +31°C° 0 mm 1 mps 753 mmHg 63%
    11:00 +32°C° 0 mm 2 mps 753 mmHg 59%
    12:00 +34°C° 0 mm 3 mps 752 mmHg 54%
    13:00 +34°C° 0 mm 4 mps 752 mmHg 56%
    14:00 +34°C° 0 mm 5 mps 751 mmHg 58%
    15:00 +33°C° 0 mm 5 mps 751 mmHg 60%
    16:00 +32°C° 0 mm 6 mps 750 mmHg 63%
    17:00 +30°C° 0 mm 6 mps 751 mmHg 67%
    18:00 +29°C° 0 mm 6 mps 751 mmHg 71%
    19:00 +28°C° 0 mm 5 mps 752 mmHg 76%
    20:00 +28°C° 0 mm 5 mps 752 mmHg 77%
    21:00 +28°C° 0 mm 4 mps 752 mmHg 79%
    22:00 +27°C° 0 mm 4 mps 753 mmHg 81%
    23:00 +27°C° 0 mm 3 mps 752 mmHg 82%

    Tomorrow, 20 November, Wednesday

    Time Temperature Precipitation Wind Pressure Humidity
    00:00 +27°C° 0 mm 3 mps 752 mmHg 83%
    01:00 +27°C° 0 mm 3 mps 752 mmHg 84%
    02:00 +26°C° 0 mm 3 mps 752 mmHg 85%
    03:00 +26°C° 0 mm 3 mps 752 mmHg 86%
    04:00 +26°C° 0 mm 4 mps 751 mmHg 87%
    05:00 +26°C° 0 mm 4 mps 752 mmHg 83%
    06:00 +27°C° 0 mm 4 mps 752 mmHg 80%
    07:00 +27°C° 0 mm 4 mps 753 mmHg 77%
    08:00 +29°C° 0 mm 3 mps 753 mmHg 69%
    09:00 +30°C° 0 mm 2 mps 753 mmHg 61%
    10:00 +32°C° 0 mm 2 mps 754 mmHg 53%
    11:00 +34°C° 0 mm 3 mps 753 mmHg 50%
    12:00 +35°C° 0 mm 4 mps 752 mmHg 47%
    13:00 +35°C° 0 mm 6 mps 751 mmHg 44%
    14:00 +35°C° 0 mm 6 mps 751 mmHg 47%
    15:00 +34°C° 0 mm 6 mps 750 mmHg 50%
    16:00 +33°C° 0 mm 7 mps 750 mmHg 52%
    17:00 +30°C° 0 mm 6 mps 750 mmHg 58%
    18:00 +29°C° 0 mm 6 mps 751 mmHg 65%
    19:00 +28°C° 0 mm 6 mps 751 mmHg 71%
    20:00 +28°C° 0 mm 5 mps 752 mmHg 73%
    21:00 +27°C° 0 mm 5 mps 752 mmHg 76%
    22:00 +27°C° 0 mm 4 mps 752 mmHg 78%
    23:00 +27°C° 0 mm 4 mps 752 mmHg 79%

    Day after tomorrow, 21 November, Thursday

    Time Temperature Precipitation Wind Pressure Humidity
    00:00 +26°C° 0 mm 4 mps 752 mmHg 81%
    01:00 +26°C° 0 mm 3 mps 752 mmHg 82%
    02:00 +26°C° 0 mm 3 mps 752 mmHg 82%
    03:00 +26°C° 0 mm 3 mps 752 mmHg 81%
    04:00 +26°C° 0 mm 3 mps 752 mmHg 81%
    05:00 +27°C° 0 mm 3 mps 752 mmHg 79%
    06:00 +27°C° 0 mm 2 mps 753 mmHg 77%
    07:00 +27°C° 0 mm 2 mps 754 mmHg 75%
    08:00 +28°C° 0 mm 2 mps 754 mmHg 70%
    09:00 +29°C° 0 mm 2 mps 754 mmHg 66%
    10:00 +29°C° 0 mm 1 mps 754 mmHg 61%
    11:00 +31°C° 0 mm 2 mps 753 mmHg 55%
    12:00 +33°C° 0 mm 3 mps 753 mmHg 50%
    13:00 +34°C° 0 mm 3 mps 752 mmHg 44%
    14:00 +33°C° 0 mm 3 mps 752 mmHg 49%
    15:00 +32°C° 0 mm 4 mps 752 mmHg 54%
    16:00 +30°C° 0 mm 4 mps 751 mmHg 59%
    17:00 +29°C° 0 mm 4 mps 752 mmHg 62%
    18:00 +28°C° 0 mm 3 mps 752 mmHg 65%
    19:00 +28°C° 0 mm 3 mps 753 mmHg 68%
    20:00 +27°C° 0 mm 3 mps 753 mmHg 69%
    21:00 +27°C° 0 mm 3 mps 753 mmHg 69%
    22:00 +27°C° 0 mm 3 mps 754 mmHg 69%
    23:00 +27°C° 0 mm 4 mps 753 mmHg 70%

    22 November, Friday

    Time Temperature Precipitation Wind Pressure Humidity
    00:00 +27°C° 0 mm 4 mps 753 mmHg 71%
    01:00 +27°C° 0 mm 5 mps 753 mmHg 71%
    02:00 +27°C° 0 mm 4 mps 753 mmHg 73%
    03:00 +27°C° 0 mm 4 mps 752 mmHg 75%
    04:00 +26°C° 0 mm 4 mps 752 mmHg 77%
    05:00 +27°C° 0 mm 4 mps 753 mmHg 76%
    06:00 +27°C° 0 mm 3 mps 753 mmHg 76%
    07:00 +27°C° 0 mm 3 mps 753 mmHg 75%
    08:00 +28°C° 0.3 mm 3 mps 754 mmHg 71%
    09:00 +29°C° 0.3 mm 3 mps 754 mmHg 67%
    10:00 +31°C° 0.3 mm 2 mps 754 mmHg 63%
    11:00 +31°C° 0.2 mm 3 mps 753 mmHg 64%
    12:00 +32°C° 0.2 mm 4 mps 753 mmHg 64%
    13:00 +32°C° 0.2 mm 5 mps 753 mmHg 64%
    14:00 +30°C° 0.1 mm 6 mps 752 mmHg 68%
    15:00 +29°C° 0.1 mm 6 mps 752 mmHg 71%
    16:00 +28°C° 0.1 mm 6 mps 752 mmHg 74%
    17:00 +28°C° 0 mm 6 mps 752 mmHg 75%
    18:00 +28°C° 0 mm 6 mps 752 mmHg 76%
    19:00 +27°C° 0 mm 5 mps 753 mmHg 76%
    20:00 +27°C° 0 mm 5 mps 753 mmHg 76%
    21:00 +27°C° 0 mm 4 mps 754 mmHg 77%
    22:00 +27°C° 0 mm 4 mps 754 mmHg 77%
    23:00 +27°C° 0 mm 4 mps 754 mmHg 77%

    23 November, Saturday

    Time Temperature Precipitation Wind Pressure Humidity
    00:00 +27°C° 0 mm 3 mps 754 mmHg 78%
    01:00 +26°C° 0 mm 3 mps 754 mmHg 79%
    02:00 +26°C° 0 mm 3 mps 754 mmHg 79%
    03:00 +26°C° 0 mm 4 mps 753 mmHg 79%
    04:00 +26°C° 0 mm 4 mps 753 mmHg 79%
    05:00 +26°C° 0 mm 4 mps 753 mmHg 78%
    06:00 +26°C° 0 mm 4 mps 754 mmHg 78%
    07:00 +27°C° 0 mm 4 mps 754 mmHg 77%
    08:00 +27°C° 0 mm 4 mps 754 mmHg 73%
    09:00 +28°C° 0 mm 4 mps 754 mmHg 69%
    10:00 +29°C° 0 mm 4 mps 754 mmHg 64%
    11:00 +29°C° 0 mm 4 mps 753 mmHg 62%
    12:00 +30°C° 0 mm 4 mps 753 mmHg 59%
    13:00 +30°C° 0 mm 4 mps 752 mmHg 56%
    14:00 +32°C° 0 mm 4 mps 752 mmHg 56%
    15:00 +32°C° 0 mm 4 mps 751 mmHg 56%
    16:00 +32°C° 0 mm 5 mps 751 mmHg 56%
    17:00 +30°C° 0 mm 5 mps 751 mmHg 61%
    18:00 +29°C° 0 mm 5 mps 752 mmHg 66%
    19:00 +27°C° 0 mm 5 mps 752 mmHg 70%
    20:00 +27°C° 0 mm 5 mps 753 mmHg 71%
    21:00 +27°C° 0 mm 4 mps 753 mmHg 72%
    22:00 +27°C° 0 mm 4 mps 753 mmHg 73%
    23:00 +27°C° 0 mm 3 mps 753 mmHg 74%

    24 November, Sunday

    Time Temperature Precipitation Wind Pressure Humidity
    00:00 +27°C° 0 mm 2 mps 752 mmHg 74%
    01:00 +27°C° 0 mm 1 mps 752 mmHg 75%
    02:00 +27°C° 0 mm 2 mps 752 mmHg 76%
    03:00 +26°C° 0 mm 3 mps 752 mmHg 76%
    04:00 +26°C° 0 mm 3 mps 752 mmHg 77%
    05:00 +27°C° 0 mm 3 mps 752 mmHg 76%
    06:00 +27°C° 0 mm 4 mps 753 mmHg 75%
    07:00 +27°C° 0 mm 4 mps 753 mmHg 75%
    08:00 +28°C° 0 mm 3 mps 753 mmHg 69%
    09:00 +30°C° 0 mm 3 mps 754 mmHg 64%
    10:00 +31°C° 0 mm 2 mps 754 mmHg 58%
    11:00 +33°C° 0 mm 3 mps 753 mmHg 57%
    12:00 +33°C° 0 mm 3 mps 752 mmHg 55%
    13:00 +34°C° 0 mm 4 mps 752 mmHg 53%
    14:00 +34°C° 0 mm 4 mps 751 mmHg 55%
    15:00 +33°C° 0 mm 4 mps 751 mmHg 57%
    16:00 +33°C° 0 mm 5 mps 750 mmHg 59%
    17:00 +32°C° 0 mm 4 mps 750 mmHg 64%
    18:00 +29°C° 0 mm 4 mps 751 mmHg 69%
    19:00 +28°C° 0 mm 4 mps 751 mmHg 74%
    20:00 +28°C° 0 mm 4 mps 752 mmHg 75%
    21:00 +28°C° 0 mm 4 mps 752 mmHg 76%
    22:00 +28°C° 0 mm 3 mps 753 mmHg 77%
    23:00 +28°C° 0 mm 3 mps 752 mmHg 77%
    Show more